Weather History for West Palm Beach, FL

Change the Weather History Date:

Thursday, December 22, 2011

  Actual Average Record
Temperature  
Mean Temperature 75 °F 67 °F  
Max Temperature 80 °F 76 °F 86 °F (1951)
Min Temperature 70 °F 59 °F 36 °F (1973)
Degree Days  
Heating Degree Days 0 2  
Month to date heating degree days 2 34  
Since 1 July heating degree days 3 46  
Cooling Degree Days 10 5  
Month to date cooling degree days 183 119  
Year to date cooling degree days 4753 3985  
Growing Degree Days 26 (Base 50)    
Moisture  
Dew Point 66 °F    
Average Humidity 73    
Maximum Humidity 84    
Minimum Humidity 62    
Precipitation  
Precipitation T in 0.12 in 1.28 in (1921)
Month to date precipitation 0.44 2.38  
Year to date precipitation 47.43 61.33  
Snow  
Snow 0.00 in - - ()
Month to date snowfall 0.0  
Since 1 July snowfall 0.0  
Snow Depth 0.00 in    
Sea Level Pressure  
Sea Level Pressure 30.12 in    
Wind  
Wind Speed 10 mph (SE)    
Max Wind Speed 21 mph    
Max Gust Speed 25 mph    
Visibility 10 miles    
Events      
T = Trace of Precipitation, MM = Missing Value Source: NWS Daily Summary

Daily Weather History Graph

Daily Weather History Graph

Search for Another Location

Airport:

Trip Planner

Search our weather history database for the weather conditions in past years. The results will help you decide how hot, cold, wet, or windy it might be!

Date:

Astronomy

Dec. 22, 2011 Rise Set
Actual Time 7:05 AM EST 5:32 PM EST
Civil Twilight 6:39 AM EST 5:58 PM EST
Nautical Twilight 6:10 AM EST 6:27 PM EST
Astronomical Twilight 5:42 AM EST 6:55 PM EST
Moon 4:48 AM EST (12/22) 3:41 PM EST (12/22)
Length of Visible Light 11h 18m
Length of Day
10h 27m
Waning Crescent, 6% of the Moon is Illuminated
Dec 22
Waning Crescent
Dec 24
New
Jan 1
First Quarter
Jan 9
Full
Jan 16
Last Quarter

Hourly Weather History & Observations

Time (EST) Temp. Dew Point Humidity Pressure Visibility Wind Dir Wind Speed Gust Speed Precip Events Conditions
12:53 AM 73.0 °F 66.0 °F 79% 30.10 in 10.0 mi SSE 11.5 mph - N/A   Scattered Clouds
1:53 AM 73.0 °F 64.9 °F 76% 30.10 in 10.0 mi SE 10.4 mph - N/A   Scattered Clouds
2:53 AM 72.0 °F 64.9 °F 78% 30.09 in 10.0 mi SSE 10.4 mph - N/A   Partly Cloudy
3:53 AM 72.0 °F 64.9 °F 78% 30.09 in 10.0 mi SSE 8.1 mph - N/A   Partly Cloudy
4:53 AM 72.0 °F 64.9 °F 78% 30.09 in 10.0 mi SSE 9.2 mph - N/A   Partly Cloudy
5:53 AM 72.0 °F 66.0 °F 81% 30.10 in 10.0 mi SE 12.7 mph - N/A   Partly Cloudy
6:53 AM 72.0 °F 64.9 °F 78% 30.11 in 10.0 mi SE 10.4 mph - N/A   Partly Cloudy
7:53 AM 73.0 °F 64.9 °F 76% 30.14 in 10.0 mi SSE 8.1 mph - N/A   Scattered Clouds
8:53 AM 75.0 °F 66.0 °F 73% 30.16 in 10.0 mi SE 9.2 mph - N/A   Scattered Clouds
9:53 AM 78.1 °F 66.0 °F 66% 30.17 in 10.0 mi SSE 15.0 mph - N/A   Scattered Clouds
10:53 AM 79.0 °F 66.9 °F 66% 30.16 in 10.0 mi SE 17.3 mph - N/A   Scattered Clouds
11:53 AM 79.0 °F 66.0 °F 64% 30.14 in 10.0 mi SSE 17.3 mph 25.3 mph N/A   Scattered Clouds
12:53 PM 79.0 °F 64.9 °F 62% 30.12 in 10.0 mi SSE 16.1 mph - N/A   Scattered Clouds
1:53 PM 79.0 °F 64.9 °F 62% 30.09 in 10.0 mi SE 16.1 mph - N/A   Scattered Clouds
2:53 PM 78.1 °F 66.0 °F 66% 30.09 in 10.0 mi SE 13.8 mph - N/A   Mostly Cloudy
3:53 PM 77.0 °F 64.9 °F 66% 30.10 in 10.0 mi SE 12.7 mph - N/A   Scattered Clouds
4:53 PM 75.9 °F 64.0 °F 67% 30.10 in 10.0 mi SE 9.2 mph - N/A   Scattered Clouds
5:53 PM 75.0 °F 66.0 °F 73% 30.10 in 10.0 mi SE 8.1 mph - N/A   Mostly Cloudy
6:53 PM 73.0 °F 66.0 °F 79% 30.11 in 10.0 mi SE 4.6 mph - N/A   Scattered Clouds
7:53 PM 73.0 °F 66.0 °F 79% 30.12 in 10.0 mi SE 6.9 mph - N/A   Partly Cloudy
8:53 PM 72.0 °F 66.9 °F 84% 30.13 in 10.0 mi SE 5.8 mph - N/A   Scattered Clouds
9:53 PM 73.0 °F 68.0 °F 84% 30.13 in 10.0 mi SSE 4.6 mph - N/A   Scattered Clouds
10:53 PM 72.0 °F 66.9 °F 84% 30.14 in 10.0 mi SE 3.5 mph - N/A   Scattered Clouds
11:53 PM 71.1 °F 68.0 °F 90% 30.13 in 10.0 mi Calm Calm - N/A   Scattered Clouds